Flag for Canada Weather past 2 weeks in Mount Pearl, Newfoundland and Labrador, Canada

Now
63 °F

Broken clouds.


Feels Like: 63 °F
Forecast: 61 / 73 °F
Wind: 16 mph from West

Location: St. John's

Current Time: Aug 31, 2015 at 9:08:46 AM

Latest Report: Aug 31, 2015 at 8:30 AM


Visibility: 15 mi

Pressure: 29.93 "Hg

Humidity: 88%

Dew point: 59 °F

Location of Mount PearlLocation

Historic Weather in Mount Pearl — Graph

°F

Mount Pearl temperature yesterday

Maximum temperature yesterday: 73 °F (at 11:30 AM)
Minimum temperature yesterday: 54 °F (at 5:30 AM)
Average temperature yesterday: 63 °F

Past Weeks' High & Low Weather Summary

 TemperatureHumidityPressure
High81 °F (Aug 18, 1:30 PM)100% (Aug 21, 7:23 AM)30.43 "Hg (Aug 21, 7:23 AM)
Low50 °F (Aug 26, 1:30 AM)38% (Aug 30, 12:30 PM)29.80 "Hg (Aug 28, 4:30 PM)
Average63 °F83%30.09 "Hg
* Reported Aug 16 6:30 AM — Aug 31 6:30 AM, Mount Pearl, Weather by CustomWeather, © 2015

Note: Actual official high and low records may vary slightly from our data, if they occured in-between our weather recording intervals... More about our weather records

Advertising

Mount Pearl weather history for previous 24 hours

 ConditionsComfort  
Time TempWeatherWind HumidityBarometerVisibility
6:30 AM
Mon, Aug 31
61 °FMostly cloudy.12 mph94%29.93 "Hg15 mi
5:30 AM61 °FMostly cloudy.9 mph94%29.92 "Hg15 mi
4:30 AM61 °FPartly cloudy.12 mph94%29.91 "Hg15 mi
3:30 AM61 °FOvercast.12 mph94%29.91 "Hg15 mi
2:30 AM61 °FMostly cloudy.12 mph94%29.93 "Hg15 mi
1:30 AM61 °FMostly cloudy.10 mph88%29.93 "Hg15 mi
12:30 AM61 °FPassing clouds.12 mph88%29.93 "Hg15 mi
11:30 PM
Sun, Aug 30
61 °FOvercast.12 mph88%29.95 "Hg10 mi
10:30 PM61 °FPartly cloudy.14 mph88%29.96 "Hg15 mi
9:30 PM63 °FPassing clouds.9 mph88%29.97 "Hg15 mi
8:30 PM63 °FPartly cloudy.5 mph83%29.97 "Hg15 mi
7:30 PM63 °FPartly sunny.7 mph88%29.96 "Hg15 mi
6:30 PM63 °FFog.7 mph88%29.97 "Hg15 mi
5:30 PM66 °FFog.6 mph73%29.98 "Hg15 mi
4:30 PM68 °FPartly sunny.9 mph64%29.99 "Hg15 mi
3:30 PM72 °FPartly sunny.10 mph57%30.00 "Hg15 mi
2:30 PM72 °FBroken clouds.8 mph57%30.01 "Hg15 mi
1:30 PM68 °FBroken clouds.9 mph60%30.02 "Hg15 mi
12:30 PM73 °FPartly sunny.3 mph38%30.03 "Hg15 mi
11:30 AM73 °FMore clouds than sun.8 mph44%30.03 "Hg15 mi
10:30 AM68 °FOvercast.3 mph64%30.03 "Hg15 mi
9:30 AM63 °FOvercast.3 mph77%30.02 "Hg15 mi
Weather by CustomWeather, © 2015

See weather overviewHow to use our weather pages